GFSSGP_925_spd_276.txt.gz
Wind_Speed
15 11 10 14 6 6 10 11 16 14 14 13 23 18 21 15 7 4 13 12 24 20 19 17 16 15 15 15 14 13 12 11 10 9 8 7 5 4 3 4 4 4 4 4 5 5 6 6 7
11 16 16 6 8 6 4 11 18 12 14 12 22 19 8 17 14 18 16 17 24 18 18 16 16 14 13 14 14 13 11 10 9 8 6 5 3 2 2 2 3 3 4 4 5 5 6 6 7
15 14 7 7 14 5 3 15 28 9 7 13 18 16 7 12 16 17 19 21 22 20 17 16 16 14 13 13 13 13 11 10 8 7 5 4 3 2 1 1 2 3 4 5 5 6 6 8 8
10 10 7 9 11 9 10 14 34 10 7 12 21 16 20 17 19 20 21 19 18 20 16 16 15 14 13 13 13 12 11 10 8 6 5 4 2 1 1 1 2 2 3 4 5 5 6 7 8
15 8 11 17 13 23 19 28 16 9 13 10 20 20 17 19 22 22 19 17 18 24 17 17 15 14 13 12 12 11 10 8 7 6 5 4 3 2 2 1 1 3 4 5 5 6 7 8 10
9 12 15 17 7 13 4 10 11 9 14 15 18 19 16 18 20 18 16 15 17 24 18 16 15 14 13 12 11 10 8 7 6 5 5 4 3 3 2 2 2 3 3 4 5 7 9 11 13
12 12 18 23 2 5 16 31 19 13 11 9 14 20 14 16 18 17 16 14 18 19 18 14 14 14 13 11 10 9 8 6 5 5 4 5 5 4 3 2 2 2 4 5 7 10 12 15 19
12 13 22 23 14 8 13 35 13 21 7 8 6 10 15 21 19 16 17 14 14 18 17 14 14 12 12 12 11 9 8 6 5 4 4 5 4 3 3 2 1 4 7 10 14 15 16 18 24
19 13 15 23 4 10 19 8 31 33 12 8 14 20 21 23 20 18 14 14 16 14 18 18 16 14 13 12 11 10 8 6 4 3 3 4 5 3 5 3 7 9 9 12 17 15 15 22 23
17 13 23 12 2 18 3 14 32 6 12 14 18 25 25 22 18 19 16 16 16 14 16 20 20 18 18 17 11 9 7 6 4 5 1 4 4 2 2 8 10 10 11 14 16 14 22 19 18
18 17 21 15 3 11 17 16 7 26 16 10 21 22 19 20 15 17 18 19 17 14 14 18 14 15 17 19 13 15 9 12 8 5 5 3 0 2 4 7 10 10 15 12 17 18 19 22 25
20 20 20 21 8 7 14 13 13 21 20 24 32 29 17 15 12 15 15 17 17 15 14 17 17 14 3 20 12 16 14 11 8 11 5 0 2 2 2 7 9 11 12 15 16 17 21 22 22
19 20 20 16 9 8 16 14 11 27 22 30 34 23 16 13 12 13 13 15 20 19 17 19 20 17 7 9 9 10 9 9 12 6 4 5 1 7 5 7 7 10 12 13 16 21 20 24 23
16 18 17 22 12 11 14 15 12 20 18 21 31 26 17 16 13 13 12 15 18 23 23 22 23 21 11 9 6 7 7 6 7 7 4 2 3 8 3 5 8 9 11 15 19 18 20 22 22
14 14 13 19 12 18 13 14 16 14 30 37 13 12 17 16 21 16 18 15 18 22 24 23 24 21 14 13 9 9 10 7 8 7 6 2 2 6 7 7 8 10 14 20 18 18 20 18 22
13 13 15 17 18 17 14 16 18 14 7 13 14 14 14 17 18 23 20 20 19 20 25 21 19 21 20 15 13 11 10 8 8 4 3 3 4 6 6 8 9 13 17 16 17 18 19 20 20
14 13 19 20 19 11 11 16 21 16 11 9 7 14 14 12 15 25 27 29 23 19 25 22 16 22 21 18 13 11 9 8 6 5 2 2 5 8 11 9 9 15 14 13 15 19 17 20 19
16 18 13 15 13 11 15 14 19 3 10 13 12 9 10 16 13 9 29 31 27 27 21 22 20 15 20 18 14 9 5 5 5 5 3 4 4 8 12 8 11 11 11 13 16 13 16 18 18
21 15 12 15 12 12 14 10 14 12 11 8 11 12 10 19 16 40 46 47 17 11 15 20 21 20 14 16 12 9 7 4 4 1 1 4 8 9 9 9 10 9 12 12 11 14 15 17 19
17 11 16 15 6 8 8 12 14 12 10 10 8 13 15 19 19 31 22 25 9 25 18 15 16 14 11 13 11 4 6 6 6 7 1 6 9 6 6 8 9 11 12 11 14 13 13 14 17
11 13 15 16 13 9 7 13 17 19 13 3 3 10 14 18 14 13 20 11 25 25 20 19 17 13 13 10 7 7 7 6 5 2 4 3 3 9 5 7 8 9 10 11 12 9 10 11 16
14 16 15 16 15 12 16 13 16 19 14 10 6 9 11 11 18 16 14 13 18 18 16 17 16 15 12 7 4 2 4 5 2 3 3 7 4 3 4 5 8 8 10 12 12 12 12 11 11
16 15 13 16 15 15 19 11 12 11 16 13 13 9 6 10 15 15 14 15 14 14 16 18 17 15 11 10 10 7 4 6 1 4 6 10 9 4 4 4 8 8 10 13 14 15 14 13 10
15 11 13 8 11 13 17 16 16 11 14 15 13 10 8 10 13 14 16 16 15 15 16 14 13 12 10 9 6 9 7 6 6 7 9 9 10 8 8 6 10 9 11 13 15 17 15 14 13
15 10 8 11 11 13 17 17 14 12 22 21 18 14 12 11 12 12 11 14 14 14 13 12 11 11 10 10 10 7 5 5 4 7 8 10 10 10 9 13 11 13 15 14 14 15 15 17 17
17 15 11 11 11 8 14 15 9 15 18 20 18 16 15 14 13 12 13 14 14 13 12 12 11 11 10 9 8 7 6 5 5 7 8 11 12 14 17 13 15 14 16 14 16 16 16 18 18
17 15 19 17 17 13 4 9 11 14 14 18 19 16 16 14 13 13 15 15 14 13 12 12 12 10 9 7 6 5 4 5 6 7 9 11 12 14 15 15 15 16 16 13 16 15 18 21 20
20 16 14 10 12 14 12 14 10 18 16 16 17 16 15 14 15 13 15 16 14 13 11 11 10 9 8 6 5 4 4 4 5 6 9 11 13 14 16 16 16 14 15 15 15 14 20 23 18
13 16 15 10 10 10 10 3 11 12 11 14 16 18 15 15 15 13 16 16 15 13 12 10 9 8 7 5 4 3 4 4 5 7 9 11 13 15 16 16 16 15 15 15 17 19 16 23 24
19 19 19 9 13 10 9 2 1 14 15 16 15 20 19 16 14 13 16 15 14 13 11 9 7 6 6 4 3 3 3 4 5 6 9 11 13 15 17 18 18 18 18 20 15 19 21 23 25

GFSSGP_925_spd_279.txt.gz
Wind_Speed
10 6 7 3 4 4 4 6 13 15 7 6 7 9 11 5 3 4 22 29 30 27 23 20 19 19 19 18 17 15 14 13 12 10 9 8 7 7 6 7 7 7 7 8 8 8 8 9 9
10 9 9 3 3 3 4 10 14 22 5 11 7 10 10 9 8 14 18 28 28 27 23 21 19 19 18 17 16 15 13 12 10 9 8 6 5 4 5 5 6 7 7 7 7 8 8 9 10
13 5 2 4 3 5 6 7 7 5 12 9 5 9 5 6 13 12 38 29 27 23 22 21 19 18 18 17 16 14 12 10 9 7 5 4 3 3 4 4 5 6 6 6 7 7 8 9 10
5 3 4 2 7 4 7 13 3 5 9 19 17 7 5 19 12 24 33 25 24 20 21 21 19 18 17 16 15 13 11 9 7 5 4 3 2 3 3 4 4 4 4 5 5 6 7 8 9
9 2 2 3 5 2 6 18 11 15 9 17 20 12 6 10 27 33 31 28 30 25 23 22 20 18 17 16 15 12 10 8 6 4 3 3 2 2 2 2 3 3 4 4 5 6 8 10 12
3 2 4 5 2 5 4 19 17 20 20 16 17 12 5 22 24 23 22 33 34 28 26 22 19 18 17 15 14 12 10 8 7 5 4 3 3 2 2 1 1 2 3 4 6 7 9 11 14
5 1 7 10 7 3 9 18 10 7 28 12 14 9 9 12 21 21 23 38 29 24 24 21 20 18 16 15 14 12 10 9 7 6 5 4 3 4 3 2 1 1 2 5 8 10 11 13 18
3 2 11 9 9 4 2 9 20 20 8 6 18 7 13 18 25 22 28 30 26 23 20 21 19 18 17 15 14 12 11 9 8 6 6 5 6 6 5 4 3 2 4 7 9 11 12 17 20
7 3 8 13 4 6 6 6 4 10 15 26 4 17 22 31 26 20 21 29 30 24 20 18 17 18 16 15 14 13 12 10 9 9 8 6 6 6 8 4 5 4 7 10 11 11 14 17 16
4 2 9 14 2 4 3 11 15 14 17 26 11 17 26 29 26 25 21 18 29 30 27 21 20 19 20 17 17 14 13 13 12 12 7 2 1 7 9 5 7 5 9 9 9 10 11 11 18
8 9 12 17 5 9 7 20 5 19 14 6 10 5 5 16 21 22 25 26 28 34 33 27 25 24 26 23 20 18 16 15 13 12 8 4 4 5 9 5 3 2 4 5 7 11 14 19 23
8 13 13 14 4 5 7 15 7 10 5 13 9 13 6 10 11 18 21 28 27 31 33 34 26 28 31 23 23 20 20 16 16 17 13 10 7 5 6 7 6 6 8 11 14 17 20 20 23
9 15 13 12 10 5 2 11 9 7 13 12 7 18 9 7 14 24 30 31 28 26 31 32 29 20 30 21 23 19 18 21 21 17 15 11 10 3 4 4 5 7 9 11 16 21 19 20 20
11 13 11 10 11 6 3 19 14 15 17 12 15 15 12 11 17 18 24 29 29 28 31 33 28 23 23 17 21 23 21 18 16 15 12 7 6 1 4 5 9 8 11 14 18 15 17 15 17
9 9 9 6 7 5 4 6 9 22 17 20 18 19 21 20 20 18 26 35 31 29 28 31 27 24 21 16 18 16 15 12 15 13 9 4 1 5 6 6 10 13 16 17 13 13 15 20 21
9 7 5 8 10 10 4 9 10 23 17 15 21 21 22 24 19 22 42 34 24 25 29 29 25 23 20 18 15 12 7 6 13 9 10 13 9 6 8 7 11 14 16 12 14 18 21 21 24
6 6 9 13 13 8 8 9 9 17 19 15 14 16 19 5 18 21 34 26 32 30 21 25 24 23 21 19 14 11 12 14 17 14 13 10 3 7 7 7 9 13 12 14 17 16 19 22 21
10 6 9 11 11 12 7 7 9 10 10 22 17 14 22 20 16 24 27 25 10 22 24 16 24 23 18 17 17 16 15 15 12 9 6 1 7 7 9 9 10 8 13 14 12 18 19 18 19
12 12 14 11 5 8 9 7 10 9 4 7 18 19 18 21 17 28 38 39 43 14 6 15 25 20 15 17 18 19 14 10 4 3 4 8 8 7 6 8 7 9 14 10 14 15 16 18 18
16 10 10 8 10 4 9 7 3 5 6 6 18 15 17 14 12 15 33 46 42 31 3 3 11 19 21 19 14 14 10 7 5 4 4 5 7 7 7 4 4 10 9 10 14 13 12 14 16
10 3 8 8 12 6 4 1 3 10 5 17 16 16 12 18 16 12 13 17 21 18 2 14 21 20 14 13 12 13 11 11 7 2 2 5 9 8 2 2 5 5 8 11 13 13 12 11 17
5 4 8 12 7 4 3 5 6 8 10 14 16 19 17 19 15 13 14 13 14 18 11 14 17 19 16 14 13 14 12 8 7 4 1 6 6 4 2 2 3 6 10 11 13 12 14 12 15
7 5 6 8 9 4 12 2 8 5 10 11 16 21 18 18 18 17 18 23 24 17 15 14 16 15 14 15 15 14 15 12 8 5 5 6 9 7 4 2 6 7 10 12 12 14 15 12 12
5 5 7 4 3 3 10 3 10 7 9 9 15 20 19 18 17 17 23 25 25 18 16 15 16 16 13 11 9 9 9 8 7 8 10 10 12 11 6 9 8 9 12 14 14 15 15 14 14
5 1 2 3 3 7 8 6 15 8 15 18 19 18 18 17 16 15 14 18 22 18 16 16 17 17 13 11 11 11 10 9 10 9 10 12 12 12 16 12 15 14 14 16 13 15 15 13 15
7 9 6 6 5 6 7 6 9 11 14 14 15 16 17 16 14 14 19 22 25 24 21 19 18 17 12 9 11 10 9 9 10 10 10 11 12 14 14 16 14 15 15 16 14 17 16 16 20
9 6 9 4 6 3 4 4 5 14 14 14 13 14 13 14 11 12 17 22 26 24 22 21 20 13 10 10 9 9 10 9 8 8 8 9 11 13 13 14 15 15 15 15 17 15 15 17 16
11 7 4 1 5 5 7 4 4 10 11 11 11 10 9 11 13 12 16 23 24 22 22 18 14 13 12 9 9 10 7 6 6 6 8 11 12 13 15 17 17 18 17 15 14 13 12 18 20
4 5 3 4 6 6 3 5 8 14 15 14 13 13 16 13 14 12 16 23 23 21 20 18 13 12 10 10 7 5 3 4 4 6 7 10 10 13 15 16 16 16 16 13 14 16 20 23 25
11 11 10 5 5 3 6 5 1 13 16 19 19 18 15 15 13 11 18 22 20 20 17 13 14 15 9 5 5 3 2 3 4 2 6 8 9 11 13 15 15 13 11 15 20 25 24 24 23

GFSSGP_925_spd_285.txt.gz
Wind_Speed
6 5 4 2 3 5 3 3 2 6 5 4 4 1 7 1 2 4 1 13 18 30 26 25 22 21 21 19 18 17 16 15 14 13 12 11 11 10 10 9 8 8 8 8 7 7 7 8 9
6 4 4 2 4 4 6 3 1 2 2 6 8 4 2 2 3 6 12 10 24 29 26 27 24 22 21 19 18 16 15 14 13 11 10 9 8 8 7 7 6 6 6 5 6 7 8 8 8
4 2 3 4 3 3 4 1 3 3 3 3 5 2 2 2 2 12 6 18 29 28 26 26 24 21 20 19 17 15 13 12 11 10 8 7 7 7 6 5 4 4 3 4 5 6 6 7 8
1 6 4 4 2 2 2 5 6 2 4 9 4 4 4 6 13 10 20 27 27 26 24 24 23 21 19 18 16 14 12 10 9 8 7 6 6 5 5 4 3 2 2 3 4 4 5 7 9
4 3 4 2 4 1 3 5 4 2 4 5 4 5 4 3 7 20 27 26 26 24 22 22 21 19 18 16 15 13 12 10 9 8 7 6 6 5 5 4 3 2 2 2 3 5 6 8 10
4 3 4 1 4 1 2 5 6 2 6 4 6 1 0 9 22 26 28 28 25 25 22 20 19 18 17 17 15 14 12 11 9 8 7 6 5 5 4 3 2 1 0 3 4 6 7 9 12
5 4 3 3 3 4 4 3 3 3 5 1 9 2 4 6 17 24 25 25 25 25 24 22 20 19 18 17 16 14 13 11 9 8 7 6 6 6 5 4 3 2 2 4 6 8 10 12 15
5 4 2 4 4 5 1 1 1 1 3 5 6 5 4 11 19 22 23 25 24 25 24 24 23 21 20 18 17 15 13 11 9 8 8 8 7 7 6 4 4 4 6 8 10 12 14 14 13
4 4 3 4 5 2 4 3 1 4 2 3 0 2 10 29 23 20 19 20 25 25 25 24 24 22 20 18 17 16 15 12 11 10 10 9 7 7 6 7 7 8 10 12 13 14 11 9 11
4 4 7 7 6 4 6 5 8 1 3 5 9 12 17 35 32 24 20 20 22 25 26 26 26 23 21 20 19 17 14 14 13 11 10 8 7 7 8 10 11 11 12 12 9 6 9 13 16
5 6 4 3 6 9 9 5 6 5 8 12 21 14 18 27 26 25 27 32 35 31 29 30 27 25 24 22 20 17 16 15 14 13 9 7 7 8 9 7 5 6 5 4 6 10 14 16 18
2 9 4 5 8 8 11 9 5 9 9 9 11 23 17 19 20 24 26 26 28 33 33 33 31 28 26 22 21 19 19 17 15 13 10 8 7 5 5 3 1 3 5 8 11 14 15 17 18
5 5 4 8 4 10 11 18 10 20 20 3 6 14 15 14 20 24 26 25 29 31 33 33 32 31 29 26 23 20 20 19 17 16 12 10 10 9 6 2 3 5 8 11 14 16 18 21 22
4 5 9 6 7 5 15 6 6 18 13 10 8 10 9 6 8 12 16 23 28 33 33 32 33 31 31 29 25 23 23 21 18 15 14 12 10 7 3 2 5 9 11 13 15 17 18 20 21
3 5 8 5 3 5 8 3 16 11 9 12 13 5 3 6 11 11 20 29 34 37 34 33 34 32 31 29 26 25 23 22 18 17 15 12 8 4 0 4 9 12 13 14 14 15 17 18 18
4 4 3 6 3 4 3 8 14 10 9 13 14 9 9 7 14 17 19 28 32 36 36 35 34 32 30 28 24 21 18 19 19 18 15 11 5 0 6 10 10 10 12 13 14 17 17 17 17
7 2 1 8 2 5 6 11 5 12 16 15 9 9 11 7 7 14 22 28 34 37 38 32 28 27 27 26 23 22 20 21 20 17 12 7 0 8 9 7 7 8 11 13 14 16 15 15 15
2 3 3 4 7 9 14 16 10 15 18 15 8 8 10 14 8 17 23 14 17 26 29 28 25 21 20 21 20 19 20 18 17 13 9 1 6 7 7 7 7 8 10 12 13 15 14 14 15
1 1 3 11 10 4 8 11 10 3 7 9 9 10 13 9 8 10 14 14 18 18 22 20 24 21 23 23 22 21 23 19 15 9 2 4 4 6 8 7 7 8 9 12 12 13 13 16 16
3 5 9 9 8 4 9 8 4 5 6 14 12 12 12 10 8 8 16 16 17 19 18 20 23 22 19 18 18 20 20 14 10 6 2 0 3 5 5 6 6 6 8 10 13 13 13 15 17
3 4 7 7 7 4 5 6 6 5 5 3 4 2 4 15 16 10 12 13 17 19 19 21 21 19 15 13 13 16 10 9 6 3 2 1 3 5 5 4 4 6 9 11 13 13 12 12 16
6 8 10 6 2 2 2 4 5 4 2 2 1 4 5 6 7 9 13 14 16 18 17 15 13 10 8 7 8 8 6 5 3 2 2 4 6 5 4 3 4 9 10 12 13 13 13 13 15
11 6 8 7 4 3 2 3 6 4 5 6 6 3 5 6 8 9 12 15 19 20 18 15 13 12 10 7 6 6 5 6 6 5 4 3 4 2 1 5 11 12 11 13 14 14 14 15 16
7 3 3 4 2 2 4 5 4 6 9 5 3 4 7 8 9 9 13 17 20 19 17 16 16 15 12 10 9 8 8 7 5 3 2 3 4 7 8 10 12 11 12 12 14 15 15 16 14
4 5 3 4 4 5 4 3 8 3 8 14 16 10 7 8 10 12 11 12 17 19 18 16 17 17 14 11 9 8 7 6 5 3 4 6 11 12 10 9 9 11 12 14 14 15 14 14 12
6 8 5 6 4 6 4 5 5 6 12 5 8 9 6 8 7 8 8 13 17 17 18 17 17 17 13 12 11 10 9 7 5 7 9 9 8 6 7 8 8 9 8 8 10 8 9 12 15
2 4 5 5 2 2 4 3 2 6 10 11 12 11 9 7 7 7 9 14 17 19 16 15 16 14 12 12 11 9 6 6 7 5 4 5 5 7 8 9 9 7 7 7 10 13 15 16 17
6 5 2 3 4 4 4 3 5 4 7 8 12 14 11 10 10 10 12 17 22 20 18 15 13 12 12 9 7 6 4 2 1 1 2 4 5 8 6 8 8 7 5 8 11 10 12 15 14
1 1 2 4 5 6 3 6 8 13 15 19 16 13 15 14 13 11 15 24 23 21 20 18 14 12 8 5 4 3 4 3 3 3 3 5 6 6 6 9 9 8 8 10 8 10 11 13 14
6 8 7 4 6 3 4 7 4 13 19 14 13 14 14 15 13 12 16 20 20 19 17 14 12 10 8 7 6 6 4 4 5 6 6 6 7 7 9 11 11 11 12 14 14 14 13 14 16

GFSSGP_925_spd_291.txt.gz
Wind_Speed
2 3 3 2 2 1 3 3 2 4 3 2 4 6 6 2 3 3 1 13 16 25 22 22 24 24 23 22 21 20 19 18 17 15 14 13 11 11 10 10 9 9 8 8 8 8 9 9 8
1 3 2 0 2 1 3 1 3 2 0 1 3 5 4 3 3 4 11 9 18 24 23 21 24 24 23 21 20 18 17 16 15 13 12 12 11 10 9 9 8 7 7 7 8 8 7 7 7
2 2 2 2 2 3 0 4 2 1 2 5 4 2 1 3 4 13 7 15 21 22 22 23 25 23 23 21 19 18 16 15 14 12 11 10 9 8 7 7 6 6 6 6 6 6 6 7 7
2 2 3 2 5 1 2 3 5 3 5 3 5 4 2 5 12 10 15 19 24 20 21 24 25 24 23 21 19 17 16 15 13 11 9 8 8 7 6 5 5 4 5 4 4 4 5 6 6
3 1 2 1 2 2 3 3 5 5 1 1 5 6 5 4 7 14 19 21 25 21 22 23 24 23 21 20 19 18 16 13 11 10 9 8 7 6 5 5 4 3 3 2 3 4 5 6 8
1 0 1 3 4 2 4 6 5 3 2 3 3 8 6 2 11 15 17 21 19 24 21 19 22 22 21 19 18 16 14 12 11 9 8 7 6 5 5 3 2 1 1 2 3 4 6 8 8
0 0 0 2 3 3 2 3 8 2 4 4 5 4 2 5 7 15 16 16 15 17 18 17 18 20 20 19 18 16 15 13 12 10 9 8 7 6 4 3 2 1 1 3 4 6 7 8 8
2 1 3 2 2 3 2 3 3 3 2 4 4 1 3 8 13 16 15 14 15 15 16 18 18 19 19 17 18 17 15 14 12 11 10 8 7 7 6 6 4 4 4 5 6 7 8 8 9
2 3 4 3 5 1 2 4 2 1 4 2 5 2 2 20 19 19 17 14 16 16 18 18 18 17 16 17 17 17 15 14 12 10 9 7 6 7 6 6 6 5 5 6 7 7 8 9 11
4 4 6 3 4 4 2 5 5 4 6 6 7 10 16 20 20 20 20 19 18 18 19 18 17 17 16 15 15 16 14 12 11 10 10 8 9 8 6 5 7 7 6 6 6 7 9 10 11
4 5 4 4 8 5 4 4 4 5 10 4 11 15 19 19 18 17 21 22 26 23 20 20 20 19 17 15 13 12 11 10 10 12 11 11 9 9 7 7 5 4 4 3 5 7 9 12 13
4 7 5 4 4 4 5 1 4 11 3 7 9 17 20 18 20 21 20 22 20 21 22 21 22 22 20 14 12 11 10 10 10 12 12 12 9 8 7 5 5 3 3 5 7 8 12 14 15
6 4 5 10 8 7 3 9 9 13 13 4 9 16 19 17 22 22 20 18 18 19 20 21 21 23 19 20 14 13 13 11 10 12 12 10 9 9 7 5 2 2 4 5 7 10 11 11 12
1 4 9 8 9 4 4 5 5 6 12 13 7 13 15 19 24 21 20 22 21 20 19 17 21 22 22 22 19 12 12 11 13 12 11 10 9 8 6 4 2 2 6 7 8 10 11 9 10
2 5 6 6 3 3 6 5 10 9 2 12 16 11 12 15 21 25 25 25 22 22 20 21 20 21 23 21 19 16 13 11 12 11 12 10 8 6 5 3 3 6 5 7 9 9 8 9 11
1 2 5 3 1 1 5 6 9 6 11 13 14 16 14 16 21 22 21 21 19 18 19 21 17 16 23 22 18 15 13 13 13 12 11 10 8 7 5 4 5 5 5 7 7 7 9 10 11
0 7 5 2 3 4 3 9 14 2 6 14 17 17 17 16 16 17 16 16 18 20 20 21 22 21 19 20 18 16 14 12 13 13 11 10 8 5 5 5 5 5 5 4 6 7 9 11 12
5 3 2 5 4 3 6 15 16 13 11 18 18 16 16 17 15 13 9 11 15 19 20 21 20 22 21 19 17 15 12 12 12 13 12 10 5 4 5 4 5 4 1 3 6 8 10 10 12
1 2 6 7 7 5 6 12 15 10 8 11 15 18 15 16 8 9 7 7 11 14 15 20 21 23 23 20 14 11 12 13 12 11 9 5 4 4 4 4 2 2 3 5 7 8 11 13 12
3 4 9 11 4 5 9 15 11 5 4 4 10 13 14 11 9 9 9 7 7 9 10 13 17 23 22 19 17 12 15 11 11 10 7 4 3 3 4 2 2 3 5 6 5 7 11 11 11
6 6 8 9 8 5 6 7 5 1 3 2 6 10 10 14 12 9 8 7 7 9 10 12 15 17 17 18 17 16 14 12 9 7 4 3 3 3 4 3 4 6 6 7 7 7 7 10 9
8 6 9 7 3 4 2 5 3 5 10 5 7 9 10 12 10 11 11 10 10 10 12 13 13 15 16 18 16 17 12 12 6 6 5 2 2 2 2 4 5 5 6 7 8 6 6 6 9
7 5 5 5 5 3 4 5 3 2 6 6 6 8 8 9 11 12 12 12 11 13 14 15 14 14 15 15 13 11 10 9 9 8 6 3 2 0 2 4 6 6 6 6 6 5 5 6 8
2 3 1 1 3 6 4 5 4 4 4 4 3 4 7 9 11 11 12 12 12 13 15 15 15 13 13 13 13 11 11 13 11 9 6 4 3 1 2 3 4 4 4 4 3 4 3 4 6
4 3 3 5 6 7 1 4 7 9 7 8 9 7 8 10 12 13 13 14 14 14 15 15 14 13 14 13 13 13 14 13 10 9 6 5 3 2 1 2 3 3 1 2 3 4 6 6 9
6 6 5 7 6 5 3 4 3 5 6 8 9 9 10 11 12 15 16 17 17 16 13 13 13 15 15 15 15 14 13 10 9 7 6 4 3 1 1 1 2 3 3 3 6 6 7 8 8
5 7 2 2 2 4 4 4 10 9 12 9 6 6 11 13 15 16 17 17 17 15 13 14 14 13 14 15 14 13 11 9 8 7 5 4 2 0 1 3 4 5 4 5 8 7 7 8 8
5 8 3 2 5 8 5 4 6 7 11 7 9 10 11 12 14 15 16 16 16 15 15 14 14 15 15 14 12 10 10 9 8 6 5 4 2 2 3 4 6 7 7 8 9 10 11 12 13
5 5 1 2 2 6 8 6 6 11 11 12 10 10 12 14 14 13 15 19 16 16 16 16 15 15 13 12 10 9 7 7 5 3 2 3 3 4 4 6 8 9 10 11 12 13 16 16 18
8 12 8 6 5 2 3 7 5 9 11 10 14 8 11 15 14 13 17 19 19 18 17 16 15 13 11 10 10 8 6 6 3 1 1 2 5 6 8 9 11 12 13 14 14 16 18 19 21